User: anonymous   Login
Location: Barrio Pajares
(40.5500°N, 4.1667°W)
Time: 16:28:39
(UTC+00:00)
Language:

Okean O Rocket - Orbit

View from above orbital plane
View from above orbital plane
View from above satellite
View from above satellite

Ground track
Ground track

The orbit data is extracted from the following two-line orbital elements,

1 25861U 99039B   24165.71450747  .00000915  00000-0  12758-3 0  9996
2 25861  98.0883 211.6559 0016003 146.2204 214.0030 14.80113097343024
Epoch (UTC): 13 June 2024 17:08:53
Eccentricity: 0.0016003
inclination: 98.0883°
perigee height: 618 km
apogee height: 640 km
right ascension of ascending node: 211.6559°
argument of perigee: 146.2204°
revolutions per day: 14.80113097
mean anomaly at epoch: 214.0030°
orbit number at epoch: 34302

The dashed part of the orbit path shows where the satellite is in the earth's shadow,  

DLR